Location: *
(47.2969°N, 10.2930°E)
Time: 13:14:12
(UTC+00:00)

H-2A R/B - Pass Details

Date: 09 April 2020
Orbit: 734 x 836 km, 98.2° (Epoch: 25 May)

Event Time Altitude Azimuth Distance (km) Brightness Sun altitude
Rises 19:57:03 0° 203° (SSW) 3,284 5.1 -18.8°
Reaches altitude 10° 19:59:56 10° 219° (SW) 2,341 4.5 -19.2°
Maximum altitude 20:03:50 21° 268° (W) 1,673 4.3 -19.7°
Drops below altitude 10° 20:07:40 10° 318° (NW) 2,305 5.6 -20.3°
Sets 20:10:29 0° 334° (NNW) 3,219 6.4 -20.6°
